Location: Columbia
(38.9520°N, 92.3340°W)
Time: 23:52:46
(UTC-05:00)

SJ-11-01 - Visible Passes

Search period start: 24 April 2018 00:00
Search period end: 04 May 2018 00:00
Orbit: 684 x 702 km, 98.1° (Epoch: 24 April)

Date Brightness Start Highest point End Pass type
(mag) Time Alt. Az. Time Alt. Az. Time Alt. Az.
24 Apr 4.3 21:15:33 12° S 21:19:53 83° WSW 21:24:35 10° NNW visible
25 Apr 5.5 20:18:39 10° ESE 20:22:26 25° ENE 20:26:14 10° NNE visible
25 Apr 5.9 21:55:48 10° SSW 21:59:50 31° W 22:03:59 10° NW visible
26 Apr 4.3 20:57:27 10° SSE 21:02:03 64° ENE 21:06:42 10° N visible
26 Apr 7.0 22:38:24 10° WSW 22:40:02 12° W 22:41:39 10° WNW visible
27 Apr 5.1 21:37:36 11° S 21:41:55 47° W 21:46:27 10° NNW visible
28 Apr 4.8 20:39:55 10° SE 20:44:17 41° ENE 20:48:41 10° N visible
28 Apr 6.7 22:18:48 10° SW 22:22:00 18° W 22:25:14 10° NW visible
29 Apr 4.4 21:19:24 10° S 21:24:02 75° WSW 21:28:44 10° NNW visible
30 Apr 5.3 20:22:37 10° SE 20:26:33 28° ENE 20:30:30 10° N visible
30 Apr 6.1 22:00:02 10° SSW 22:04:01 28° W 22:08:01 10° NW visible
01 May 4.2 21:01:34 10° SSE 21:06:12 72° ENE 21:10:52 10° N visible
01 May 7.1 22:43:31 10° W 22:44:14 10° W 22:44:56 10° W visible
02 May 5.3 21:41:40 10° S 21:46:05 42° W 21:50:33 10° NNW visible
03 May 4.7 20:43:57 10° SE 20:48:25 46° ENE 20:52:53 10° N visible
03 May 6.8 22:23:15 10° SW 22:26:11 16° W 22:29:09 10° NW visible
